This is the latest recevied weather packets stored in our database for station/object W5ITZ. If no packets are shown the sender has not sent any weather packets the latest 10 day(s).
| Time | Temp. | Humidity | Pressure | Rain* | Wind** | Luminosity | Snow |
|---|---|---|---|---|---|---|---|
| 1777984066 | 22.78° C | 95% | 1008.8 hPa | 0 mm | - | 11 W/m² | - |
| 1777983763 | 22.78° C | 95% | 1008.7 hPa | 0 mm | - | 10 W/m² | - |
| 1777983460 | 22.78° C | 95% | 1008.6 hPa | 0 mm | - | 11 W/m² | - |
| 1777983157 | 22.78° C | 95% | 1008.5 hPa | 0 mm | - | 14 W/m² | - |
| 1777982853 | 22.22° C | 95% | 1008.6 hPa | 0 mm | - | 12 W/m² | - |
| 1777982549 | 22.22° C | 95% | 1008.5 hPa | 0 mm | - | 11 W/m² | - |
| 1777982248 | 22.22° C | 95% | 1008.6 hPa | 0 mm | - | 9 W/m² | - |
| 1777981946 | 22.22° C | 95% | 1008.6 hPa | 0 mm | - | 6 W/m² | - |
| 1777981643 | 22.22° C | 95% | 1008.7 hPa | 0 mm | - | 4 W/m² | - |
| 1777981338 | 22.22° C | 95% | 1008.6 hPa | 0 mm | - | 2 W/m² | - |
| 1777981035 | 22.22° C | 95% | 1008.6 hPa | 0 mm | - | 1 W/m² | - |
| 1777980732 | 22.22° C | 95% | 1008.7 hPa | 0 mm | - | 0 W/m² | - |
| 1777980428 | 22.22° C | 95% | 1008.6 hPa | 0 mm | - | 0 W/m² | - |
| 1777980126 | 22.22° C | 95% | 1008.4 hPa | 0 mm | - | 0 W/m² | - |
| 1777979826 | 22.22° C | 95% | 1008.5 hPa | 0 mm | - | 0 W/m² | - |
| 1777979522 | 22.22° C | 95% | 1008.6 hPa | 0 mm | - | 0 W/m² | - |
| 1777979218 | 22.22° C | 95% | 1008.6 hPa | 0 mm | - | 0 W/m² | - |
| 1777978915 | 22.22° C | 95% | 1008.5 hPa | 0 mm | - | 0 W/m² | - |
| 1777978612 | 22.22° C | 95% | 1008.8 hPa | 0 mm | - | 0 W/m² | - |
| 1777978308 | 21.67° C | 95% | 1008.6 hPa | 0 mm | - | 0 W/m² | - |
| 1777978005 | 21.67° C | 95% | 1008.5 hPa | 0 mm | - | 0 W/m² | - |
| 1777977702 | 21.67° C | 95% | 1008.7 hPa | 0 mm | - | 0 W/m² | - |
| 1777977398 | 21.67° C | 95% | 1008.5 hPa | 0 mm | - | 0 W/m² | - |
| 1777977096 | 21.67° C | 95% | 1008.4 hPa | 0 mm | - | 0 W/m² | - |
| 1777976793 | 21.67° C | 95% | 1008.4 hPa | 0 mm | - | 0 W/m² | - |
* Rain latest hour (hover to see other rain measurements)
** Current wind speed in m/s (hover to see current wind gust speed)